Station MZXC1 - 9415102 - Martinez-Amorco Pier, CA Image indicating link to RSS feed of recent meteorological observations for station MZXC1


Conditions at MZXC1 as of
1848 GMT on 07/14/2024:
     

Click on the graph icon in the table below to see a time series plot of the last five days of that observation.

5-day plot - Wind Direction Wind Direction (WDIR):WNW ( 290 deg true )
5-day plot - Wind Speed Wind Speed (WSPD): 18.1 kts
5-day plot - Wind Gust Wind Gust (GST): 21.0 kts
5-day plot - Atmospheric Pressure Atmospheric Pressure (PRES):30.03 in
5-day plot - Air Temperature Air Temperature (ATMP): 65.1 °F
5-day plot - Water Temperature Water Temperature (WTMP): 71.2 °F
5-day plot - Visibility Visibility (VIS): 5.9 nmi
5-day plot - Wind Speed at 10 Meters Wind Speed at 10 meters (WSPD10M): 19.4 kts
5-day plot - Wind Speed at 20 Meters Wind Speed at 20 meters (WSPD20M): 19.4 kts
5-day plot -  Wind Speed, Wind Gust and Atmospheric Pressure Combined plot of Wind Speed, Gust, and Air Pressure
NOS Water Level Observation Network Water Level
Previous observations
TIME
(GMT)
5-day plot - Wind Direction
WDIR
 
5-day plot - Wind Speed
WSPD
kts
5-day plot - Wind Gust
GST
kts
5-day plot - Wave Height
WVHT
ft
5-day plot - Dominant Wave Period
DPD
sec
5-day plot - Average Wave Period
APD
sec
5-day plot - Mean Wave Direction
MWD
 
5-day plot - Atmospheric Pressure
PRES
in
5-day plot - Pressure Tendency
PTDY
in
5-day plot - Air Temperature
ATMP
°F
5-day plot - Water Temperature
WTMP
°F
5-day plot - Dew Point
DEWP
°F
5-day plot - Salinity
SAL
psu
5-day plot - Visibility
VIS
nmi
5-day plot - Tide (above MLLW)
TIDE
ft
2024-07-14 1842WNW 19.0 21.0----30.03- 64.6 71.2-- 5.9-
2024-07-14 1836WNW 18.1 21.0----30.04- 64.2 71.1-- 5.9-
2024-07-14 1830WNW 19.0 21.0----30.04-- 71.1-- 5.9-
2024-07-14 1824WNW 18.1 21.0----30.04-- 71.1-- 5.9-
2024-07-14 1818WNW 18.1 21.0----30.04----- 5.9-
2024-07-14 1812WNW 19.0 21.0----30.04----- 5.9-
2024-07-14 1806WNW 17.1 19.0----30.05----- 5.9-
2024-07-14 1800WNW 15.9 19.0----30.04+0.00 64.0 71.1-- 5.9-
2024-07-14 1754WNW 15.0 18.1----30.04- 64.0 71.1-- 5.9-
2024-07-14 1748WNW 17.1 19.0----30.04-- 70.9-- 5.9-
2024-07-14 1742WNW 15.9 18.1----30.04-- 70.9-- 5.9-
2024-07-14 1736WNW 15.0 17.1----30.04-- 70.9-- 5.9-
2024-07-14 1730WNW 15.0 18.1----30.05-- 70.9-- 5.9-
2024-07-14 1724 W 14.0 15.9----30.05-- 70.9-- 5.9-
2024-07-14 1718 W 13.0 15.9----30.05- 62.2 70.9-- 5.9-
2024-07-14 1712 W 12.0 14.0----30.05- 62.1 70.9-- 5.9-
2024-07-14 1706 W 13.0 14.0----30.06- 61.9 70.9-- 5.9-
2024-07-14 1700 W 12.0 15.0------ 61.9 70.9-- 5.9-
2024-07-14 1654 W 12.0 14.0------ 61.5 70.9-- 5.9-
2024-07-14 1648 W 11.1 13.0----30.06- 61.3 70.9-- 5.9-
2024-07-14 1642 W 12.0 15.9----30.06- 61.3 70.9-- 5.9-
2024-07-14 1636 W 12.0 15.9----30.06- 61.3 70.9-- 5.9-
2024-07-14 1630 W 15.0 17.1----30.05- 60.8 70.9-- 5.9-
2024-07-14 1624 W 13.0 17.1----30.06- 61.2 70.9-- 5.9-
2024-07-14 1618-------30.06- 60.4 70.9-- 5.9-
2024-07-14 1612-------30.05- 59.9 70.9-- 5.9-
2024-07-14 1606-------30.05- 60.1 70.9-- 5.9-
2024-07-14 1600 W 15.0 19.0----30.05+0.03 59.9 70.9-- 5.9-
2024-07-14 1554 W 15.0 18.1----30.05- 59.7 70.9-- 5.9-
2024-07-14 1548 W 15.0 20.0----30.06-- 70.9-- 5.9-
2024-07-14 1542 W 13.0 17.1----30.05-- 70.9-- 5.9-
2024-07-14 1536 W 13.0 17.1----30.05-- 70.9-- 5.9-
2024-07-14 1530 W 15.0 19.0----30.05- 59.2 70.9-- 5.9-
2024-07-14 1524 W 13.0 15.0----30.05- 58.8 70.9-- 5.9-
2024-07-14 1518 W 12.0 18.1----30.06- 59.2 70.9-- 5.9-
2024-07-14 1512 W 13.0 15.9----30.06- 59.0 70.9-- 5.9-
2024-07-14 1506 W 12.0 19.0----30.05- 58.8 71.1-- 5.9-
2024-07-14 1500 W 13.0 19.0----30.05+0.06 58.8 71.1-- 5.9-
2024-07-14 1454 W 12.0 20.0----30.04- 58.6 71.2-- 5.9-
2024-07-14 1448 W 15.0 21.0------ 58.3 71.2-- 5.9-
2024-07-14 1442 W 17.1 22.0------ 58.3 71.2-- 5.9-
2024-07-14 1436 W 17.1 21.0------ 58.3 71.2-- 5.9-
2024-07-14 1430 W 17.1 21.0----30.03- 58.3 71.2-- 5.9-
2024-07-14 1424 W 15.0 19.0----30.04- 58.5 71.2-- 5.9-
2024-07-14 1418 W 17.1 20.0----30.03- 57.9 71.2-- 5.9-
2024-07-14 1412WSW 14.0 18.1----30.04- 58.5 71.2-- 5.9-
2024-07-14 1406WSW 13.0 17.1----30.03- 58.5 71.2-- 5.9-
2024-07-14 1400-------30.03+0.06 58.5 71.2-- 5.9-
2024-07-14 1354-------30.03- 58.8 71.2-- 5.9-
2024-07-14 1348WSW 12.0 17.1----30.03- 58.8 71.2-- 5.9-
2024-07-14 1342 W 14.0 22.0----30.02- 58.6 71.2-- 5.9-
2024-07-14 1336 W 15.0 19.0----30.02- 58.5 71.2-- 5.9-
2024-07-14 1330 W 14.0 17.1----30.02- 58.6 71.2-- 5.9-
2024-07-14 1324 W 12.0 17.1----30.03- 57.9 71.2-- 5.9-
2024-07-14 1318 W 13.0 17.1----30.03-- 71.2-- 5.9-
2024-07-14 1312 SW 11.1 15.0----30.03-- 71.2-- 5.9-
2024-07-14 1306WSW 12.0 15.9----30.02-- 71.2-- 5.9-
2024-07-14 1300WSW 12.0 15.0----30.02+0.07 58.3 71.1-- 5.9-
2024-07-14 1254WSW 14.0 17.1----30.02- 58.1 71.1-- 5.9-
2024-07-14 1248 W 13.0 18.1----30.01- 58.3 71.1-- 5.9-
2024-07-14 1242 W 12.0 17.1----30.01- 58.6 71.1-- 5.9-
2024-07-14 1236 W 13.0 17.1----30.01- 58.8 71.1-- 5.9-
2024-07-14 1230WSW 12.0 17.1----30.01- 58.8 71.1-- 5.9-
2024-07-14 1224 SW 13.0 15.9----30.01- 58.5 71.1-- 5.9-
2024-07-14 1218WSW 12.0 18.1----30.01- 58.6 70.9-- 5.9-
2024-07-14 1212WSW 14.0 19.0----30.00- 58.8 70.9-- 5.9-
2024-07-14 1206 SW 12.0 18.1----30.00- 59.0 70.9-- 5.9-
2024-07-14 1200 SW 9.9 17.1----29.99+0.05 59.0 70.9-- 5.9-
2024-07-14 1154 W 11.1 15.9----29.99- 59.0 70.9-- 5.9-
2024-07-14 1148WSW 13.0 17.1----29.99-- 70.9-- 5.9-
2024-07-14 1142 W 14.0 18.1----29.98-- 70.7-- 5.9-
2024-07-14 1136 W 11.1 15.9----29.98-- 70.7-- 5.9-
2024-07-14 1130WSW 12.0 15.9----29.98- 59.0 70.7-- 5.9-
2024-07-14 1124WSW 12.0 15.0----29.98- 59.0 70.7-- 5.9-
2024-07-14 1118WSW 12.0 15.0----29.98- 59.0 70.7-- 5.9-
2024-07-14 1112WSW 12.0 15.9----29.98- 59.0 70.5-- 5.9-
2024-07-14 1106 W 12.0 19.0----29.97- 59.0 70.5-- 5.9-
2024-07-14 1100 W 12.0 15.9----29.97+0.04- 70.5-- 5.9-
2024-07-14 1054WSW 11.1 14.0----29.97-- 70.5-- 5.9-
2024-07-14 1048WSW 8.9 15.0----29.97- 58.8 70.5-- 5.9-
2024-07-14 1042WSW 9.9 15.9----29.96- 59.0 70.3-- 5.9-
2024-07-14 1036 W 11.1 13.0----29.96- 59.2 70.3-- 5.9-
2024-07-14 1030 W 11.1 14.0----29.96-- 70.3-- 5.9-
2024-07-14 1024WSW 12.0 15.0----29.96-- 70.3-- 5.9-
2024-07-14 1018WSW 11.1 13.0----29.95- 58.8 70.3-- 5.9-
2024-07-14 1012 W 9.9 15.0----29.95- 59.0 70.3-- 5.9-
2024-07-14 1006WSW 9.9 13.0----29.95- 59.2 70.3-- 5.9-
2024-07-14 1000 W 12.0 15.9----29.95+0.02 58.8 70.3-- 5.9-
2024-07-14 0954 W 12.0 15.9----29.95- 59.2 70.3-- 5.9-
2024-07-14 0948 W 12.0 18.1----29.95- 59.5 70.3-- 5.9-
2024-07-14 0942 W 13.0 15.0----29.94- 59.5 70.3-- 5.9-
2024-07-14 0936 W 12.0 15.9----29.94- 59.2 70.3-- 5.9-
2024-07-14 0930WSW 14.0 19.0----29.94- 59.5 70.3-- 5.9-
2024-07-14 0924 SW 14.0 18.1----29.94- 59.9 70.3-- 5.9-
2024-07-14 0918WSW 13.0 15.9----29.94- 59.4 70.3-- 5.9-
2024-07-14 0912WSW 8.9 13.0----29.95- 60.1 70.3-- 5.9-
2024-07-14 0906WSW 8.0 15.0----29.94- 60.4 70.3-- 5.9-
2024-07-14 0900 W 11.1 15.0----29.94+0.00- 70.3-- 5.9-
2024-07-14 0854 W 13.0 19.0----29.94-- 70.3-- 5.9-
2024-07-14 0848 W 15.0 19.0----29.94-- 70.3-- 5.9-
2024-07-14 0842 W 15.0 19.0----29.94-- 70.3-- 5.9-
2024-07-14 0836 W 15.0 18.1----29.94-- 70.3-- 5.9-
2024-07-14 0830 W 9.9 15.9----29.94- 61.2 70.3-- 5.9-
2024-07-14 0824 W 14.0 18.1----29.94- 61.5 70.3-- 5.9-
2024-07-14 0818 W 15.0 17.1----29.94-- 70.5-- 5.9-
2024-07-14 0812 W 15.0 20.0----29.94-- 70.5-- 5.9-
2024-07-14 0806 W 18.1 24.1----29.94-- 70.5-- 5.9-
2024-07-14 0800 W 18.1 22.0----29.93-0.02 61.3 70.5-- 5.9-
2024-07-14 0754 W 18.1 22.0----29.93- 61.5 70.5-- 5.9-
2024-07-14 0748 W 17.1 21.0----29.93-- 70.5-- 5.9-
2024-07-14 0742 W 15.0 18.1----29.94-- 70.5-- 5.9-
2024-07-14 0736 W 15.9 19.0----29.93-- 70.5-- 5.9-
2024-07-14 0730 W 15.0 17.1----29.95- 61.9 70.5-- 5.9-
2024-07-14 0724 W 15.0 20.0----29.94- 62.8 70.5-- 5.9-
2024-07-14 0718 W 15.9 20.0----29.94- 63.5 70.5-- 5.9-
2024-07-14 0712 W 17.1 20.0----29.93- 64.4 70.5-- 5.9-
2024-07-14 0706 W 15.0 21.0----29.93- 64.6 70.5-- 5.9-
2024-07-14 0700 W 15.0 21.0----29.93+0.00 64.4 70.5-- 5.9-
2024-07-14 0654 W 17.1 21.0----29.93- 64.2 70.5-- 5.9-
2024-07-14 0648 W 15.9 19.0----29.93- 63.7 70.5-- 5.9-
2024-07-14 0642 W 12.0 15.9----29.93- 61.5 70.5-- 5.9-
2024-07-14 0636WSW 12.0 15.9----29.94- 62.2 70.5-- 5.9-
2024-07-14 0630WSW 12.0 15.0----29.94- 61.7 70.5-- 5.9-
2024-07-14 0624 W 8.9 12.0----29.94- 62.2 70.5-- 5.9-
2024-07-14 0618WSW 9.9 15.0----29.94-- 70.5-- 5.9-
2024-07-14 0612 W 15.0 17.1----29.94-- 70.5-- 5.9-
2024-07-14 0606WNW 14.0 17.1----29.93-- 70.5-- 5.9-
2024-07-14 0600 W 15.9 20.0----29.93+0.00 62.1 70.5-- 5.9-
2024-07-14 0554WNW 17.1 19.0----29.93- 61.7 70.5-- 5.9-
2024-07-14 0548WNW 15.9 18.1----29.94- 61.9 70.5-- 5.9-
2024-07-14 0542WNW 14.0 19.0----29.94- 62.1 70.5-- 5.9-
2024-07-14 0536 W 14.0 17.1----29.94- 62.8 70.5-- 5.9-
2024-07-14 0530WNW 15.0 17.1----29.95- 62.2 70.7-- 5.9-
2024-07-14 0524 W 18.1 20.0----29.94- 62.6 70.7-- 5.9-
2024-07-14 0518 W 15.9 20.0----29.94-- 70.7-- 5.9-
2024-07-14 0512 W 14.0 19.0----29.95-- 70.7-- 5.9-
2024-07-14 0506WNW 15.0 17.1----29.95-- 70.7-- 5.9-
2024-07-14 0500 W 13.0 15.0----29.95+0.04- 70.7-- 5.9-
2024-07-14 0454 W 11.1 17.1----29.95-- 70.7-- 5.9-
2024-07-14 0448 W 14.0 19.0----29.95-- 70.7-- 5.9-
2024-07-14 0442WNW 15.9 20.0----29.94-- 70.7-- 5.9-
2024-07-14 0436 W 17.1 20.0----29.93-- 70.9-- 5.9-
2024-07-14 0430 W 15.0 17.1----29.94- 64.6 70.9-- 5.9-
2024-07-14 0424 W 17.1 18.1----29.93- 63.9 70.9-- 5.9-
2024-07-14 0418 W 15.0 18.1----29.93- 64.6 70.9----
2024-07-14 0412 W 14.0 15.9----29.93- 64.8 70.9----
2024-07-14 0406 W 14.0 19.0----29.94- 64.2 70.9----
2024-07-14 0400 W 14.0 18.1----29.93+0.05 64.4 70.9-- 5.9-
2024-07-14 0354 W 11.1 14.0----29.94- 64.2 70.9-- 5.9-
2024-07-14 0348 W 11.1 18.1----29.93- 64.4 70.9-- 5.9-
2024-07-14 0342WSW 13.0 15.9----29.93- 68.4 70.9-- 5.9-
2024-07-14 0336WNW 12.0 15.9----29.94- 66.2 71.1-- 5.9-
2024-07-14 0330WNW 14.0 17.1----29.94- 65.5 71.1-- 5.9-
2024-07-14 0324 W 2.9 7.0----29.94- 66.9 71.1-- 5.9-
2024-07-14 0318SSW 6.0 8.9----29.94- 66.9 71.2-- 5.9-
2024-07-14 0312WSW 5.1 13.0----29.94- 67.6 71.2-- 5.9-
2024-07-14 0306 W 14.0 17.1----29.93- 66.2 71.2-- 5.9-
2024-07-14 0300WNW 14.0 15.9----29.93+0.05 66.2 71.2-- 5.9-
2024-07-14 0254WSW 11.1 13.0----29.93- 68.2 71.2-- 5.9-
2024-07-14 0248 SW 9.9 15.9----29.93- 68.5 71.2-- 5.9-
2024-07-14 0242WSW 12.0 15.0----29.92- 70.2 71.4-- 5.9-
2024-07-14 0236 SW 12.0 15.9----29.92- 70.7 71.4-- 5.9-
2024-07-14 0230 SW 13.0 15.0----29.92- 68.7 71.4-- 5.9-
2024-07-14 0224WSW 8.9 13.0----29.92- 69.4 71.6-- 5.9-
2024-07-14 0218WSW 8.9 11.1----29.92- 70.0--- 5.9-
2024-07-14 0212WSW 11.1 15.0----29.91- 69.6--- 5.9-
2024-07-14 0206WSW 12.0 15.9----29.90- 70.9--- 5.9-
2024-07-14 0200 SW 9.9 19.0----29.90+0.02 70.9 72.3-- 5.9-
2024-07-14 0154WSW 20.0 24.1----29.88- 70.9 72.3-- 5.9-
2024-07-14 0148WSW 22.0 24.1----29.88-- 72.5-- 5.9-
2024-07-14 0142WSW 14.0 15.9----29.89-- 72.5-- 5.9-
2024-07-14 0136 SW 13.0 20.0----29.90-- 72.7-- 5.9-
2024-07-14 0130WSW 18.1 22.0----29.89- 71.8 72.7-- 5.9-
2024-07-14 0124WSW 19.0 22.0----29.89- 70.9 72.7-- 5.9-
2024-07-14 0118WSW 15.0 18.1----29.89-- 72.9-- 5.9-
2024-07-14 0112WSW 11.1 18.1----29.89-- 72.9-- 5.9-
2024-07-14 0106WSW 17.1 20.0----29.88-- 72.9-- 5.9-
2024-07-14 0100 SW 17.1 21.0----29.88+0.00 73.2 73.0-- 5.9-
2024-07-14 0054WSW 20.0 22.9----29.88- 73.4 73.0-- 5.9-
2024-07-14 0048WSW 19.0 22.0------- 73.2-- 5.9-
2024-07-14 0042WSW 21.0 22.9------- 73.2-- 5.9-
2024-07-14 0036 W 20.0 24.1------- 73.2-- 5.9-
2024-07-14 0030 W 17.1 19.0----29.88- 73.8 73.4-- 5.9-
2024-07-14 0024 W 15.0 19.0----29.88- 74.8 73.4-- 5.9-
2024-07-14 0018WSW 13.0 17.1----29.88- 75.0 73.4-- 5.9-
2024-07-14 0012WSW 15.0 18.1----29.88- 74.8 73.4-- 5.9-
2024-07-14 0006WSW 15.0 20.0----29.89- 75.0 73.4-- 5.9-
2024-07-14 0000WSW 15.0 17.1----29.88-0.01 75.4 73.4-- 5.9-
2024-07-13 2354WSW 14.0 19.0----29.88- 74.8 73.4-- 5.9-
2024-07-13 2348 W 15.9 21.0----29.88- 74.3 73.4-- 5.9-
2024-07-13 2342 W 18.1 21.0----29.88- 74.3 73.4-- 5.9-
2024-07-13 2336 W 18.1 21.0----29.88- 75.2 73.4-- 5.9-
2024-07-13 2330 W 19.0 22.0----29.88- 75.7 73.4-- 5.9-
2024-07-13 2324 W 18.1 21.0----29.88- 76.1 73.6-- 5.9-
2024-07-13 2318 W 15.0 19.0----29.88- 74.7 73.6-- 5.9-
2024-07-13 2312 W 17.1 20.0----29.88- 77.5 73.6-- 5.9-
2024-07-13 2306 W 14.0 19.0----29.88- 77.5 73.6-- 5.9-
2024-07-13 2300 W 14.0 19.0----29.88-0.02 78.3 73.6-- 5.9-
2024-07-13 2254 W 15.0 18.1----29.88- 78.1 73.8-- 5.9-
2024-07-13 2248 W 14.0 17.1----29.89- 78.3 73.8-- 5.9-
2024-07-13 2242 W 13.0 19.0----29.88- 78.3 73.6-- 5.9-
2024-07-13 2236WSW 15.0 18.1----29.89- 76.6 73.6-- 5.9-
2024-07-13 2230WSW 15.9 21.0----29.89-- 73.6-- 5.9-
2024-07-13 2224WSW 15.9 19.0----29.89-- 73.4-- 5.9-
2024-07-13 2218 SW 12.0 19.0----29.89- 75.0 73.4-- 5.9-
2024-07-13 2212 SW 13.0 21.0----29.90- 75.4 73.2-- 5.9-
2024-07-13 2206 SW 15.9 18.1----29.89- 75.0 73.2-- 5.9-
2024-07-13 2200WSW 14.0 19.0----29.89+0.00 76.6 73.2-- 5.9-
2024-07-13 2154 W 17.1 19.0----29.88- 76.1 73.0-- 5.9-
2024-07-13 2148 W 15.0 18.1----29.88- 76.3 73.0-- 5.9-
2024-07-13 2142 W 13.0 15.9----29.88- 76.5 73.0-- 5.9-
2024-07-13 2136 W 14.0 17.1----29.89- 77.0 73.0-- 5.9-
2024-07-13 2130WNW 13.0 18.1----29.89-- 73.0-- 5.9-
2024-07-13 2124WNW 14.0 18.1----29.89-- 72.9-- 5.9-
2024-07-13 2118WNW 15.9 18.1----29.89- 73.8 72.9-- 5.9-
2024-07-13 2112WNW 15.0 18.1----29.88- 74.1 72.9-- 5.9-
2024-07-13 2106WNW 15.0 17.1----29.89- 74.3 72.9-- 5.9-
2024-07-13 2100WNW 13.0 15.9----29.89-0.01 75.2 72.7-- 5.9-
2024-07-13 2054WNW 12.0 14.0----29.90- 74.8 72.7-- 5.9-
2024-07-13 2048 W 9.9 12.0----29.91- 73.9 72.7-- 5.9-
2024-07-13 2042WSW 12.0 14.0----29.91- 73.2 72.5-- 5.9-
2024-07-13 2036WSW 12.0 14.0----29.91- 72.5 72.5-- 5.9-
2024-07-13 2030WSW 11.1 15.9----29.91-- 72.5-- 5.9-
2024-07-13 2024 W 13.0 15.9----29.91-- 72.5-- 5.9-
2024-07-13 2018 W 13.0 15.9----29.90- 71.6 72.3-- 5.9-
2024-07-13 2012 W 14.0 18.1----29.90- 71.8 72.3-- 5.9-
2024-07-13 2006 W 15.0 19.0----29.90- 71.6 72.1-- 5.9-
2024-07-13 2000 W 14.0 18.1----29.91-0.01- 72.1-- 5.9-
2024-07-13 1954 W 15.9 19.0----29.89-- 72.0-- 5.9-
2024-07-13 1948 W 14.0 19.0----29.90-- 72.0-- 5.9-
2024-07-13 1942 W 14.0 17.1----29.90-- 71.8-- 5.9-
2024-07-13 1936 W 15.0 19.0----29.91-- 71.8-- 5.9-
2024-07-13 1930WSW 13.0 19.0----29.91- 68.7 71.8-- 5.9-
2024-07-13 1924WSW 15.0 18.1----29.90- 69.4 71.6-- 5.9-
2024-07-13 1918 W 14.0 18.1----29.90- 68.9 71.6-- 5.9-
2024-07-13 1912 W 15.9 22.0----29.90- 68.2 71.6-- 5.9-
2024-07-13 1906 W 19.0 22.0----29.89- 66.4 71.6-- 5.9-
2024-07-13 1900WNW 19.0 22.0----29.88+0.00- 71.4-- 5.9-
2024-07-13 1854WNW 19.0 22.9----29.88-- 71.4-- 5.9-